FW6987 Weather Reports


Display with metric or nautical units.
time (UTC)temp
F
wind
direction
speed
MPH
gust
MPH
rain 1hr
in
rain 24hr
in
rain mn
in
humidity
%
barometer
mb
20260831024622 69 0 0.0 2.0 0.00 0.00 0.00 84 1009.9
20260831023057 69 0 0.0 2.0 0.00 0.00 0.00 83 1010.0
20260831021559 69 0 0.0 2.0 0.00 0.00 0.00 82 1009.6
20260831020113 70 0 0.0 2.0 0.00 0.00 0.00 83 1010.1
20260831014608 70 0 0.0 2.0 0.00 0.00 0.00 83 1009.8
20260831013104 71 0 0.0 2.0 0.00 0.00 0.00 82 1009.6
20260831011610 71 289 0.0 3.0 0.00 0.00 0.00 81 1009.3
20260831010100 71 0 0.0 4.0 0.00 0.00 0.00 81 1009.4
20260831004603 71 0 0.0 2.0 0.00 0.00 0.00 83 1009.4
20260831003059 71 0 0.0 2.0 0.00 0.00 0.00 83 1009.1
20260831001601 71 0 0.0 3.0 0.00 0.00 0.00 83 1008.8
20260831000059 71 0 0.0 2.0 0.00 0.00 0.00 84 1008.7
20260830234612 71 0 0.0 2.0 0.00 0.00 0.00 87 1008.6
20260830233102 72 0 0.0 3.0 0.00 0.00 0.00 87 1008.5
20260830231603 72 0 0.0 2.0 0.00 0.00 0.00 87 1008.3
20260830230101 72 0 0.0 2.0 0.00 0.00 0.00 87 1008.2
20260830224557 72 0 0.0 2.0 0.00 0.00 0.00 87 1008.5
20260830223059 72 0 0.0 1.0 0.00 0.00 0.00 86 1008.5
20260830221601 73 0 0.0 1.0 0.00 0.00 0.00 86 1008.5
20260830220104 73 0 0.0 1.0 0.00 0.00 0.00 85 1008.5
20260830214605 74 0 0.0 0.0 0.00 0.00 0.00 85 1008.3
20260830213112 74 0 0.0 0.0 0.00 0.00 0.00 84 1008.3
20260830211607 74 0 0.0 0.0 0.00 0.00 0.00 83 1008.1
20260830210104 75 0 0.0 1.0 0.00 0.00 0.00 82 1008.4
20260830204558 75 0 0.0 0.0 0.00 0.00 0.00 83 1008.4
20260830203101 75 0 0.0 0.0 0.00 0.00 0.00 82 1008.5
20260830201614 75 0 0.0 1.0 0.00 0.00 0.00 81 1008.4
20260830200055 75 0 0.0 1.0 0.00 0.00 0.00 80 1008.7
20260830194602 76 0 0.0 2.0 0.00 0.00 0.00 80 1008.8
20260830193059 76 0 0.0 1.0 0.00 0.00 0.00 79 1008.8
20260830191558 76 0 0.0 2.0 0.00 0.00 0.00 79 1008.8
20260830190054 76 0 0.0 4.0 0.00 0.00 0.00 77 1009.1
20260830184600 76 0 0.0 0.0 0.00 0.00 0.00 76 1009.3
20260830183059 76 0 0.0 0.0 0.00 0.00 0.00 77 1009.7
20260830181608 75 0 0.0 4.0 0.00 0.00 0.00 76 1009.9
20260830180108 75 218 0.0 4.0 0.00 0.00 0.00 77 1010.0
20260830174613 75 0 0.0 4.0 0.00 0.00 0.00 76 1010.1
20260830173111 75 0 1.0 7.0 0.00 0.00 0.00 75 1010.3
20260830171630 75 205 0.0 5.0 0.00 0.00 0.00 75 1010.2
20260830170056 75 0 1.0 7.0 0.00 0.00 0.00 72 1010.4
20260830164558 74 127 0.0 3.0 0.00 0.00 0.00 72 1010.3
20260830163102 73 0 0.0 3.0 0.00 0.00 0.00 74 1010.7
20260830161605 72 0 0.0 3.0 0.00 0.00 0.00 74 1011.2
20260830160109 72 66 0.0 3.0 0.00 0.00 0.00 78 1011.1
20260830154558 71 0 0.0 2.0 0.00 0.00 0.00 76 1011.4
20260830153058 70 0 0.0 2.0 0.00 0.00 0.00 78 1011.6
20260830151623 69 0 0.0 2.0 0.00 0.00 0.00 80 1012.0
20260830150105 68 0 0.0 2.0 0.00 0.00 0.00 81 1011.9
20260830144607 67 0 0.0 1.0 0.00 0.00 0.00 84 1012.0
20260830143107 66 0 0.0 0.0 0.00 0.00 0.00 86 1012.2
20260830141602 65 0 0.0 0.0 0.00 0.00 0.00 87 1012.3
20260830140101 64 0 0.0 0.0 0.00 0.00 0.00 87 1012.3
20260830134619 63 0 0.0 0.0 0.00 0.00 0.00 89 1012.2
20260830133103 63 0 0.0 0.0 0.00 0.00 0.00 89 1012.3
20260830131608 62 0 0.0 0.0 0.00 0.00 0.00 90 1012.4
20260830130100 61 0 0.0 0.0 0.00 0.00 0.00 90 1012.4
20260830124601 60 0 0.0 0.0 0.00 0.00 0.00 90 1012.7
20260830123107 60 0 0.0 0.0 0.00 0.00 0.00 90 1012.8
20260830121558 60 0 0.0 0.0 0.00 0.00 0.00 90 1013.0
20260830120058 59 0 0.0 0.0 0.00 0.00 0.00 89 1013.0
20260830114559 59 0 0.0 2.0 0.00 0.00 0.00 90 1012.9
20260830113059 58 0 0.0 0.0 0.00 0.00 0.00 89 1013.3
20260830111558 58 0 0.0 0.0 0.00 0.00 0.00 88 1013.3
20260830104559 58 0 0.0 1.0 0.00 0.00 0.00 88 1013.0
20260830103100 58 0 0.0 1.0 0.00 0.00 0.00 87 1012.9
20260830101559 59 0 0.0 1.0 0.00 0.00 0.00 87 1013.0
20260830100058 59 0 0.0 1.0 0.00 0.00 0.00 87 1012.9
20260830094609 59 0 0.0 2.0 0.00 0.00 0.00 86 1012.9
20260830093056 59 0 0.0 1.0 0.00 0.00 0.00 85 1013.0
20260830091557 59 0 0.0 0.0 0.00 0.00 0.00 84 1013.0
20260830084604 60 0 0.0 1.0 0.00 0.00 0.00 83 1013.1
20260830083102 60 0 0.0 0.0 0.00 0.00 0.00 83 1013.2
20260830081555 60 0 0.0 0.0 0.00 0.00 0.00 82 1013.4
20260830080100 60 0 0.0 0.0 0.00 0.00 0.00 82 1013.3
20260830074615 61 0 0.0 0.0 0.00 0.00 0.00 81 1013.3
20260830073114 61 0 0.0 0.0 0.00 0.00 0.00 80 1013.4
20260830071559 61 0 0.0 0.0 0.00 0.00 0.00 80 1013.3
20260830070100 61 0 0.0 0.0 0.00 0.00 0.00 80 1012.9
20260830064603 61 0 0.0 0.0 0.00 0.00 0.00 79 1013.0
20260830063101 61 0 0.0 0.0 0.00 0.00 0.00 79 1013.1
20260830061636 61 0 0.0 2.0 0.00 0.00 0.00 79 1013.2
20260830060104 60 292 0.0 0.0 0.00 0.00 0.00 80 1013.3
20260830054604 60 0 0.0 2.0 0.00 0.00 0.00 80 1013.4
20260830053102 61 292 0.0 2.0 0.00 0.00 0.00 79 1013.3
20260830051604 61 292 0.0 1.0 0.00 0.00 0.00 78 1013.2
20260830050105 62 0 0.0 2.0 0.00 0.00 0.00 77 1013.1
20260830044609 62 0 0.0 0.0 0.00 0.00 0.00 75 1013.0
20260830043146 63 0 0.0 0.0 0.00 0.00 0.00 74 1013.3
20260830041609 63 0 0.0 0.0 0.00 0.00 0.00 73 1013.4
20260830034556 64 0 0.0 0.0 0.00 0.00 0.00 69 1013.2
20260830033057 65 0 0.0 0.0 0.00 0.00 0.00 68 1013.0
20260830031559 66 341 0.0 2.0 0.00 0.00 0.00 67 1013.1
20260830030057 67 0 1.0 3.0 0.00 0.00 0.00 64 1013.2